Regional Weather Roundup
Issued by NWS Northern Indiana

Home | Current Version | Previous Version | Text Only | Print | Product List | Glossary On
Versions: 1 2 3 4 5 6 7 8 9 10 11 12 13 14 15 16 17 18 19 20 21 22 23 24 25 26 27 28 29 30 31 32 33 34 35 36 37 38 39 40 41 42 43 44 45 46 47 48 49 50
000
ASUS43 KIWX 252010
RWRIWX

KIWX WEATHER ROUNDUP
NATIONAL WEATHER SERVICE NORTHERN INDIANA
300 PM EST SAT FEB 25 2017

NOTE: "FAIR" INDICATES FEW OR NO CLOUDS BELOW 12,000 FEET WITH NO
SIGNIFICANT WEATHER AND/OR OBSTRUCTIONS TO VISIBILITY.

* THESE STATIONS ARE NOT UNDER NWS QUALITY CONTROL. THEY ALSO MAY NOT
  REPORT WEATHER SUCH AS PRECIPITATION OR FOG.

INZ001>027-252100-
NORTHERN INDIANA

CITY           SKY/WX    TMP DP  RH WIND       PRES   REMARKS
GARY*          CLOUDY    28  12  50 W22       29.90R WCI  15
VALPARAISO     CLOUDY    31  16  54 W18G28    29.88R WCI  19
MICHIGAN CITY* LGT SNOW  27  19  74 W10G21    29.88R WCI  17
LAPORTE*       MOSUNNY   26  17  67 W16G24    29.87S WCI  14
KNOX*          CLOUDY    28   0  29 W18G24    29.88S WCI  16
SOUTH BEND     CLOUDY    24  16  71 W13G20    29.86R WCI  12
ELKHART*       LGT SNOW  25  18  74 W17       29.85R WCI  11
GOSHEN         CLOUDY    26  16  65 W21G26    29.84R WCI  12
MONTICELLO*    CLOUDY    28  16  60 W21       29.91R WCI  15
LOGANSPORT*    FLURRIES  28  19  69 W17G24    29.91R WCI  16
ROCHESTER*     PTSUNNY   30  18  59 W13G23    29.89R WCI  20
ANGOLA*        CLOUDY    25  19  80 W14       29.80R WCI  13
FORT WAYNE     FLURRIES  27  17  66 W20G30    29.85R WCI  13
HUNTINGTON*    CLOUDY    26  16  66 W20G28    29.87R WCI  12
PERU/GRISSOM   FLURRIES  27  19  73 W20       29.88R WCI  13
MARION*        LGT SNOW  26  19  76 W23G29    29.91R WCI  11

$$
INZ028>050-252100-
CENTRAL INDIANA

CITY           SKY/WX    TMP DP  RH WIND       PRES   REMARKS
LAFAYETTE      CLOUDY    28  19  69 W13G24    29.93R WCI  17
KOKOMO*        FLURRIES  27  21  78 W23       29.91R WCI  12
MUNCIE*        FLURRIES  28  19  69 W18G30    29.90R WCI  15
INDIANAPOLIS   PTSUNNY   31  17  56 W20       29.93S WCI  19

$$
MIZ043>046-050>051-056>058-064>065-071>073-077>080-252100-
SOUTHWEST LOWER MICHIGAN

CITY           SKY/WX    TMP DP  RH WIND       PRES   REMARKS
BATTLE CREEK   LGT SNOW  25  20  81 W18G29    29.78R WCI  11
BENTON HARBOR  FLURRIES  26  16  65 W17G31    29.85R WCI  13
COLDWATER*     LGT SNOW  26  21  80 W16G28    29.79R WCI  14
HILLSDALE*     FLURRIES  27  19  74 W17G23    29.74R WCI  14
HOLLAND        LGT SNOW  24  16  71 W18G25    29.81R WCI  10
GRAND RAPIDS   LGT SNOW  24  16  71 W25G33    29.76R WCI   8
KALAMAZOO      LGT SNOW  25  17  72 W17G23    29.80R WCI  12
STURGIS*       CLOUDY    26  18  73 W13G22    29.80R WCI  15
THREE RIVERS*  LGT SNOW  25  18  74 W20G26    29.82R WCI  11

$$
OHZ001>008-015>018-024>025-252100-
NORTHWEST OHIO

CITY           SKY/WX    TMP DP  RH WIND       PRES   REMARKS
WAUSEON*       FLURRIES  28  21  74 W28G35    29.78R WCI  13
DEFIANCE       CLOUDY    27  18  69 W13G20    29.82R WCI  16
FINDLAY        CLOUDY    31  19  61 W26       29.79R WCI  17
TOLEDO EXPRESS CLOUDY    30  19  63 W20G30    29.77R WCI  17
TOLEDO METCALF CLOUDY    34  21  59 W26G33    29.77R WCI  21
LIMA           CLOUDY    28  20  71 W23G33    29.83R WCI  14

$$
AND FOR LAKE MICHIGAN COASTAL AND OPEN LAKE BUOY OBSERVATIONS

STATION/POSITION TEMP    WIND        PRES    VSBY  WAVE
                 AIR SEA DIR/SP/G                  HT/PER
                 (F)     (DEG/KT/KT) (MB)    (MI)  (FT/S)
CALUMET HARBOR    26     270/ 11/ 18 1011.7R
MICHIGAN CITY     25     250/ 24/ 28   N/A
BURNS HARBOR      27     270/ 18/ 25 1012.2R
SAINT JOSEPH      27     260/ 18/ 24 1011.2

$$
&&




USA.gov is the U.S. government's official web portal to all federal, state and local government web resources and services.